CW5229 Weather Reports


Display with metric or nautical units.
time (UTC)temp
F
wind
direction
speed
MPH
gust
MPH
rain 1hr
in
rain 24hr
in
rain mn
in
humidity
%
barometer
mb
20260902194546 97 237 2.0 7.0 0.00 0.00 0.00 53 1011.0
20260902193037 97 193 1.0 4.0 0.00 0.00 0.00 56 1011.2
20260902191535 97 238 1.0 7.0 0.00 0.00 0.00 55 1011.3
20260902190031 97 236 1.0 5.0 0.00 0.00 0.00 55 1011.5
20260902184526 97 198 2.0 5.0 0.00 0.00 0.00 58 1011.7
20260902183023 96 259 0.0 5.0 0.00 0.00 0.00 58 1011.5
20260902181521 96 158 1.0 5.0 0.00 0.00 0.00 58 1011.7
20260902180019 95 184 2.0 9.0 0.00 0.00 0.00 56 1011.7
20260902174551 95 167 1.0 5.0 0.00 0.00 0.00 59 1011.9
20260902173045 95 230 1.0 5.0 0.00 0.00 0.00 60 1012.0
20260902171512 94 310 1.0 5.0 0.00 0.00 0.00 61 1012.2
20260902170009 94 259 0.0 6.0 0.00 0.00 0.00 60 1012.1
20260902164513 93 284 1.0 6.0 0.00 0.00 0.00 62 1012.4
20260902163008 93 241 1.0 4.0 0.00 0.00 0.00 61 1012.5
20260902161517 92 292 2.0 4.0 0.00 0.00 0.00 62 1012.4
20260902160008 91 163 0.0 3.0 0.00 0.00 0.00 64 1012.3
20260902154510 90 133 1.0 5.0 0.00 0.00 0.00 66 1012.3
20260902153001 89 312 0.0 5.0 0.00 0.00 0.00 68 1012.4
20260902151502 88 237 2.0 5.0 0.00 0.00 0.00 68 1012.3
20260902150002 87 160 1.0 5.0 0.00 0.00 0.00 69 1012.3
20260902144532 87 192 1.0 5.0 0.00 0.00 0.00 70 1012.4
20260902143031 87 261 1.0 9.0 0.00 0.00 0.00 69 1012.4
20260902141534 86 171 1.0 5.0 0.00 0.00 0.00 70 1012.4
20260902140027 85 269 0.0 5.0 0.00 0.00 0.00 71 1012.5
20260902134530 85 257 1.0 4.0 0.00 0.01 0.00 72 1012.6
20260902133033 82 285 0.0 3.0 0.00 0.01 0.00 76 1012.8
20260902131525 81 165 0.0 2.0 0.00 0.01 0.00 78 1012.9
20260902130027 80 217 1.0 3.0 0.00 0.01 0.00 78 1013.0
20260902124526 79 181 0.0 1.0 0.00 0.01 0.00 79 1012.9
20260902124522 79 167 0.0 1.0 0.00 0.01 0.00 79 1012.9
20260902123021 77 252 0.0 0.0 0.00 0.01 0.00 83 1013.0
20260902121520 76 214 0.0 0.0 0.00 0.01 0.00 83 1013.0
20260902120045 0 0.0 0.0 0.00 0.01 0.00 1012.8
20260902114549 0 0.0 0.0 0.00 0.01 0.00 1012.8
20260902113050 0 0.0 0.0 0.00 0.01 0.00 1012.8
20260902111530 0 0.0 0.0 0.00 0.01 0.00 1012.6
20260902110025 0 266 0.0 1.0 0.00 0.01 0.00 1012.6
20260902104523 75 248 0.0 1.0 0.00 0.02 0.00 85 1012.6
20260902103018 74 207 0.0 1.0 0.00 0.02 0.00 86 1012.7
20260902101521 75 254 0.0 0.0 0.00 0.02 0.00 86 1012.7
20260902100019 75 257 0.0 1.0 0.00 0.02 0.00 86 1012.4
20260902094515 75 255 0.0 1.0 0.00 0.05 0.00 86 1012.4
20260902093016 75 255 0.0 1.0 0.00 0.05 0.00 86 1012.4
20260902091511 76 271 0.0 0.0 0.00 0.05 0.00 85 1012.4
20260902090010 76 271 0.0 0.0 0.00 0.05 0.00 85 1012.4
20260902084508 76 271 0.0 1.0 0.00 0.08 0.00 84 1012.3
20260902083007 77 218 0.0 1.0 0.00 0.08 0.00 84 1012.3
20260902081508 77 274 0.0 2.0 0.00 0.08 0.00 84 1012.1
20260902080005 77 263 0.0 1.0 0.00 0.08 0.00 85 1012.1
20260902074504 76 255 0.0 3.0 0.00 0.08 0.00 85 1012.1
20260902073037 76 208 0.0 1.0 0.00 0.08 0.00 85 1012.0
20260902071532 77 207 0.0 1.0 0.00 0.08 0.00 85 1012.1
20260902070030 77 265 0.0 2.0 0.00 0.08 0.00 85 1012.1
20260902064534 77 177 0.0 2.0 0.00 0.08 0.00 85 1012.1
20260902063030 77 274 0.0 1.0 0.00 0.08 0.00 85 1012.1
20260902061542 77 209 0.0 0.0 0.00 0.08 0.00 86 1012.0
20260902060026 77 238 0.0 0.0 0.00 0.08 0.00 85 1012.1
20260902054626 77 245 0.0 1.0 0.00 0.08 0.00 85 1012.1
20260902053022 78 229 0.0 2.0 0.00 0.08 0.00 84 1012.2
20260902051520 78 271 0.0 2.0 0.00 0.08 0.00 83 1012.2
20260902050017 79 151 0.0 1.0 0.00 0.08 0.00 82 1012.2
20260902044524 79 207 0.0 1.0 0.00 0.08 0.00 82 1012.2
20260902043017 79 257 0.0 0.0 0.00 0.08 0.00 81 1012.3
20260902041514 79 160 0.0 0.0 0.00 0.08 0.00 81 1012.3
20260902040012 79 160 0.0 0.0 0.00 0.08 0.00 82 1012.4
20260902034512 79 160 0.0 0.0 0.00 0.08 0.00 82 1012.2
20260902033010 79 157 0.0 0.0 0.00 0.08 0.00 83 1012.2
20260902031508 80 157 0.0 0.0 0.00 0.08 0.00 83 1012.3
20260902030004 80 217 0.0 0.0 0.00 0.08 0.00 82 1012.3
20260902024502 81 264 0.0 0.0 0.00 0.08 0.00 82 1012.2
20260902023113 81 276 0.0 0.0 0.00 0.08 0.00 82 1012.2
20260902021602 82 270 0.0 1.0 0.00 0.08 0.00 82 1012.1
20260902020029 82 288 0.0 1.0 0.00 0.08 0.00 82 1011.9
20260902014530 82 268 0.0 0.0 0.00 0.08 0.00 81 1011.9
20260902013022 83 245 0.0 0.0 0.00 0.08 0.00 80 1011.7
20260902011520 84 232 0.0 0.0 0.00 0.08 0.00 79 1011.6
20260902010024 85 232 0.0 0.0 0.00 0.08 0.00 78 1011.3
20260902004514 86 224 0.0 0.0 0.00 0.10 0.00 76 1011.3
20260902003006 87 222 0.0 0.0 0.00 0.10 0.00 74 1011.2
20260902001501 88 223 0.0 1.0 0.00 0.10 0.00 70 1011.3
20260901234602 91 210 0.0 4.0 0.00 0.10 0.00 66 1011.3
20260901233054 92 259 0.0 3.0 0.00 0.10 0.00 66 1011.4
20260901231608 92 286 1.0 3.0 0.00 0.10 0.00 65 1011.4
20260901224551 92 240 0.0 2.0 0.00 0.10 0.00 67 1011.4
20260901223050 93 276 0.0 3.0 0.00 0.10 0.00 65 1011.4
20260901221552 93 277 1.0 4.0 0.00 0.10 0.00 64 1011.4
20260901220027 94 263 1.0 5.0 0.00 0.10 0.00 63 1011.3
20260901214515 94 236 0.0 4.0 0.00 0.10 0.00 66 1011.3
20260901213020 94 284 1.0 5.0 0.00 0.10 0.00 64 1011.3
20260901211514 96 169 1.0 5.0 0.00 0.10 0.00 61 1011.5
20260901210011 96 284 2.0 5.0 0.00 0.10 0.00 60 1011.5
20260901204514 96 270 2.0 8.0 0.00 0.10 0.00 59 1011.6
20260901203005 97 176 1.0 4.0 0.00 0.10 0.00 60 1011.8
20260901201503 97 259 0.0 4.0 0.00 0.10 0.00 60 1011.7
20260901200004 97 279 1.0 5.0 0.00 0.10 0.00 60 1011.8